SL-12 DEB, 41560

Orbit data source: Space-Track

SL-12 DEB, 41560 is space debris in HEO originally from a launch on Thu, 25 Dec 2008 UTC launched from the Tyuratam Missile And Space Complex (TTMTR). Debris objects in space refer to the collection of defunct objects orbiting the Earth. Examples of debris include non-operational satellites, rocket bodies, and fragments generated from explosions, collisions, or faulty payload assembly.

Loading next visibility...
Identifier
41560, 2008-067J
Orbit
HEO
Country
Flag of CISCIS
Related business
Manufacturer
RKKE
Mission
Spacecraft
Bus & Motor
Unknown
Mass
Unknown
Launch date (UTC)
2008-12-25 (17 years ago)
Launch vehicle
Unknown
Launch site
Tyuratam Missile And Space Complex (TTMTR)
Object type
Payload
Rocket body
Debris
Shape & HBR
Unknown shape, 0.8 m
Radar Cross Section
Medium (>0.1 m² and <1 m²)

Expand to show TLE details & history
Last TLE update: 2 days ago

TLE from 2 days ago
0 SL-12 DEB
1 41560U 08067J   26124.41703911  .00000198  00000-0  14877-2 0  9995
2 41560  65.2857 196.8749 5606469 239.3691  53.9461  4.22991812155832
Epoch: 2026-05-04T10:00Z
TLE epoch observation values (Epoch: 2026-05-04T10:00:32.179Z)
Latitude
Longitude
-175.56009°
Altitude
9,137.45 km
Speed
5.168 km/s
True Right ascension
13h 07m 31s
True Declination
0° 00' 00"
Sunlit
Object was in daylight at epoch
Visualization orbit readout
Latitude
Unknown
Longitude
Unknown
Altitude
Unknown
Speed
Unknown
Apparent Right ascension
Unknown
Apparent Declination
Unknown
Sunlit
N/A
Visualization observer readout
Local Sidereal Time
19:11:36
Azimuth
Unknown
Elevation
Unknown
Doppler factor
Unknown
Orbital elements
Apogee altitude
18,825.008 km
Perigee altitude
717.049 km
Semi-major axis
16,149.166 km
Eccentricity
0.56065
Inclination
65.2857°
RAAN
196.8749°
Arg. of periapsis
239.3691°
True anomaly
120.71332°
Mean anomaly
53.9461°
Eccentric anomaly
85.99017°
Mean motion
1.05759 °/min
Orbital period
340.4 mins
BSTAR
0.0014877
Loading maneuver chart data...
Computing Atmospheric mass density...
Loading historical data...
Loading historical data...
Loading historical data...
Loading historical data...
Loading historical data...
Loading historical data...
Loading historical data...

Documentation

Showing up to 5 results
|